NUSTAR

Last updated on Thu Dec 18 2025 00:03:35 GMT+0000 (Coordinated Universal Time)

1 38358U 12031A 25351.66670139 .00003506 00000+0 17534-3 0 9994 2 38358 6.0287 313.5344 0009770 287.7569 32.6818 15.06470493 1303
UTC large
Height (km)
Speed (km/s)
/
Latitude / Longitude
Inclination (degrees)
Orbital Period (minutes)
Azimuth
Elevation
Range (km)
Doppler Factor

Next 0 passes for location: London (51.5072 / 0.1276)

Sorry there are no passes over London.